Change the Weather History Date:

Tuesday, January 21, 2014

  Actual Average (KNFG) Record (KNFG)
Temperature  
Mean Temperature 60 °F -  
Max Temperature 77 °F 64 °F 66 °F (2015)
Min Temperature 44 °F 39 °F 44 °F (2015)
Degree Days  
Heating Degree Days 4    
Growing Degree Days 10 (Base 50)    
Moisture  
Dew Point 19 °F    
Average Humidity 23    
Maximum Humidity 34    
Minimum Humidity 9    
Precipitation  
Precipitation 0.00 in - - ()
Sea Level Pressure  
Sea Level Pressure 30.14 in    
Wind  
Wind Speed 3 mph (NNE)    
Max Wind Speed 7 mph    
Max Gust Speed -    
Visibility 10 miles    
Events      
Averages and records for this station are not official NWS values.
T = Trace of Precipitation, MM = Missing Value Source: NWS Daily Summary

Daily Weather History Graph

Daily Weather History Graph

Search for Another Location

Airport or City:

Trip Planner

Search our weather history database for the weather conditions in past years. The results will help you decide how hot, cold, wet, or windy it might be!

Date:

Astronomy

Jan. 21, 2014 Rise Set
Actual Time 6:50 AM PST 5:09 PM PST
Civil Twilight 6:24 AM PST 5:35 PM PST
Nautical Twilight 5:53 AM PST 6:06 PM PST
Astronomical Twilight 5:24 AM PST 6:35 PM PST
Moon 10:27 PM PST (1/21) 9:40 AM PST (1/21)
Length of Visible Light 11h 11m
Length of Day
10h 18m
Waning Gibbous, 73% of the Moon is Illuminated
Jan 21
Waning Gibbous
Jan 23
Last Quarter
Jan 30
New
Feb 6
First Quarter
Feb 14
Full

Hourly Weather History & Observations

Time (PST) Temp. Windchill Dew Point Humidity Pressure Visibility Wind Dir Wind Speed Gust Speed Precip Events Conditions
12:15 AM 50.0 °F - 17.6 °F 28% 30.19 in 10.0 mi North 3.5 mph - N/A   Clear
12:35 AM 51.8 °F - 17.6 °F 26% 30.19 in 10.0 mi NNE 4.6 mph - N/A   Clear
12:55 AM 50.0 °F - 17.6 °F 28% 30.18 in 10.0 mi Calm Calm - N/A   Clear
1:15 AM 50.0 °F - 17.6 °F 28% 30.18 in 10.0 mi NNE 4.6 mph - N/A   Clear
1:35 AM 48.2 °F - 17.6 °F 30% 30.18 in 10.0 mi Calm Calm - N/A   Clear
1:55 AM 48.2 °F - 17.6 °F 30% 30.18 in 10.0 mi NNE 3.5 mph - N/A   Clear
2:15 AM 48.2 °F - 19.4 °F 32% 30.18 in 10.0 mi North 3.5 mph - N/A   Clear
2:35 AM 48.2 °F - 19.4 °F 32% 30.19 in 10.0 mi North 4.6 mph - N/A   Clear
2:55 AM 46.4 °F - 17.6 °F 32% 30.19 in 10.0 mi Calm Calm - N/A   Clear
3:15 AM 46.4 °F 45.2 °F 17.6 °F 32% 30.18 in 10.0 mi North 3.5 mph - N/A   Clear
3:35 AM 46.4 °F 45.2 °F 17.6 °F 32% 30.18 in 10.0 mi North 3.5 mph - N/A   Clear
3:55 AM 46.4 °F - 17.6 °F 32% 30.18 in 10.0 mi Calm Calm - N/A   Clear
4:15 AM 46.4 °F - 17.6 °F 32% 30.18 in 10.0 mi Calm Calm - N/A   Clear
4:35 AM 46.4 °F 44.3 °F 15.8 °F 29% 30.18 in 10.0 mi North 4.6 mph - N/A   Clear
4:55 AM 46.4 °F - 17.6 °F 32% 30.18 in 10.0 mi Calm Calm - N/A   Clear
5:15 AM 46.4 °F 45.2 °F 17.6 °F 32% 30.18 in 10.0 mi North 3.5 mph - N/A   Clear
5:35 AM 44.6 °F 42.2 °F 17.6 °F 34% 30.18 in 10.0 mi NNE 4.6 mph - N/A   Clear
5:56 AM 46.4 °F 44.3 °F 17.6 °F 32% 30.18 in 10.0 mi NNE 4.6 mph - N/A   Clear
6:15 AM 46.4 °F 44.3 °F 17.6 °F 32% 30.18 in 10.0 mi NNE 4.6 mph - N/A   Clear
6:35 AM 46.4 °F 45.2 °F 17.6 °F 32% 30.18 in 10.0 mi North 3.5 mph - N/A   Clear
6:55 AM 46.4 °F 44.3 °F 19.4 °F 34% 30.18 in 10.0 mi North 4.6 mph - N/A   Clear
7:15 AM 46.4 °F 45.2 °F 19.4 °F 34% 30.18 in 10.0 mi North 3.5 mph - N/A   Clear
7:35 AM 46.4 °F 45.2 °F 19.4 °F 34% 30.18 in 10.0 mi North 3.5 mph - N/A   Clear
7:55 AM 48.2 °F - 19.4 °F 32% 30.18 in 10.0 mi NNE 3.5 mph - N/A   Clear
8:15 AM 50.0 °F - 19.4 °F 30% 30.19 in 10.0 mi Calm Calm - N/A   Clear
8:35 AM 51.8 °F - 21.2 °F 30% 30.19 in 10.0 mi North 4.6 mph - N/A   Clear
8:55 AM 55.4 °F - 21.2 °F 26% 30.19 in 10.0 mi North 5.8 mph - N/A   Clear
9:15 AM 57.2 °F - 19.4 °F 23% 30.20 in 10.0 mi North 5.8 mph - N/A   Clear
9:35 AM 59.0 °F - 21.2 °F 23% 30.20 in 10.0 mi North 5.8 mph - N/A   Clear
9:55 AM 60.8 °F - 21.2 °F 22% 30.19 in 10.0 mi NNE 6.9 mph - N/A   Clear
10:15 AM 64.4 °F - 21.2 °F 19% 30.19 in 10.0 mi NNE 6.9 mph - N/A   Clear
10:35 AM 66.2 °F - 21.2 °F 18% 30.18 in 10.0 mi NNE 5.8 mph - N/A   Clear
10:55 AM 69.8 °F - 17.6 °F 14% 30.17 in 10.0 mi North 5.8 mph - N/A   Clear
11:15 AM 69.8 °F - 17.6 °F 14% 30.16 in 10.0 mi North 6.9 mph - N/A   Clear
11:35 AM 69.8 °F - 23.0 °F 17% 30.14 in 10.0 mi Calm Calm - N/A   Clear
11:55 AM 69.8 °F - 28.4 °F 21% 30.13 in 10.0 mi South 5.8 mph - N/A   Clear
12:15 PM 68.0 °F - 28.4 °F 23% 30.11 in 10.0 mi Calm Calm - N/A   Clear
12:35 PM 71.6 °F - 21.2 °F 15% 30.11 in 10.0 mi South 4.6 mph - N/A   Clear
12:55 PM 71.6 °F - 26.6 °F 19% 30.10 in 10.0 mi Calm Calm - N/A   Clear
1:15 PM 73.4 °F - 19.4 °F 13% 30.09 in 10.0 mi Calm Calm - N/A   Clear
1:35 PM 73.4 °F - 19.4 °F 13% 30.09 in 10.0 mi Calm Calm - N/A   Clear
1:55 PM 73.4 °F - 21.2 °F 14% 30.08 in 10.0 mi Calm Calm - N/A   Clear
2:15 PM 73.4 °F - 21.2 °F 14% 30.09 in 10.0 mi Calm Calm - N/A   Clear
2:35 PM 75.2 °F - 21.2 °F 13% 30.08 in 10.0 mi Calm Calm - N/A   Clear
2:55 PM 77.0 °F - 14.0 °F 9% 30.08 in 10.0 mi North 6.9 mph - N/A   Clear
3:15 PM 75.2 °F - 14.0 °F 10% 30.08 in 10.0 mi North 4.6 mph - N/A   Clear
3:35 PM 75.2 °F - 14.0 °F 10% 30.08 in 10.0 mi North 5.8 mph - N/A   Clear
3:55 PM 75.2 °F - 14.0 °F 10% 30.08 in 10.0 mi Calm Calm - N/A   Clear
4:15 PM 75.2 °F - 15.8 °F 11% 30.08 in 10.0 mi North 5.8 mph - N/A   Clear
4:35 PM 73.4 °F - 17.6 °F 12% 30.08 in 10.0 mi North 4.6 mph - N/A   Clear
4:55 PM 69.8 °F - 17.6 °F 14% 30.08 in 10.0 mi North 3.5 mph - N/A   Clear
5:15 PM 69.8 °F - 17.6 °F 14% 30.08 in 10.0 mi Calm Calm - N/A   Clear
5:35 PM 68.0 °F - 17.6 °F 15% 30.08 in 10.0 mi Calm Calm - N/A   Clear
5:55 PM 66.2 °F - 17.6 °F 15% 30.09 in 10.0 mi Calm Calm - N/A   Clear
6:15 PM 66.2 °F - 17.6 °F 15% 30.10 in 10.0 mi Calm Calm - N/A   Clear
6:35 PM 62.6 °F - 17.6 °F 18% 30.10 in 10.0 mi ESE 3.5 mph - N/A   Clear
6:55 PM 66.2 °F - 15.8 °F 14% 30.10 in 10.0 mi Calm Calm - N/A   Clear
7:15 PM 64.4 °F - 15.8 °F 15% 30.11 in 10.0 mi Calm Calm - N/A   Clear
7:35 PM 60.8 °F - 19.4 °F 20% 30.11 in 10.0 mi NE 3.5 mph - N/A   Clear
7:55 PM 59.0 °F - 19.4 °F 22% 30.11 in 10.0 mi Calm Calm - N/A   Clear
8:15 PM 59.0 °F - 21.2 °F 23% 30.11 in 10.0 mi Calm Calm - N/A   Clear
8:35 PM 57.2 °F - 21.2 °F 25% 30.11 in 10.0 mi Calm Calm - N/A   Clear
8:55 PM 57.2 °F - 21.2 °F 25% 30.11 in 10.0 mi Calm Calm - N/A   Clear
9:15 PM 55.4 °F - 21.2 °F 26% 30.11 in 10.0 mi Calm Calm - N/A   Clear
9:35 PM 57.2 °F - 21.2 °F 25% 30.11 in 10.0 mi Calm Calm - N/A   Clear
9:55 PM 55.4 °F - 24.8 °F 31% 30.11 in 10.0 mi NNW 3.5 mph - N/A   Clear
10:15 PM 55.4 °F - 21.2 °F 26% 30.11 in 10.0 mi NNE 4.6 mph - N/A   Clear
10:35 PM 55.4 °F - 19.4 °F 25% 30.10 in 10.0 mi Calm Calm - N/A   Clear
10:55 PM 55.4 °F - 19.4 °F 25% 30.10 in 10.0 mi Calm Calm - N/A   Clear
11:15 PM 55.4 °F - 21.2 °F 26% 30.10 in 10.0 mi Calm Calm - N/A   Clear
11:35 PM 55.4 °F - 21.2 °F 26% 30.10 in 10.0 mi Calm Calm - N/A   Clear
11:55 PM 55.4 °F - 21.2 °F 26% 30.09 in 10.0 mi NNE 3.5 mph - N/A   Clear